Time,TemperatureF,DewpointF,PressureIn,WindDirection,WindDirectionDegrees,WindSpeedMPH,WindSpeedGustMPH,Humidity,HourlyPrecipIn,Conditions,Clouds,dailyrainin,SoftwareType,DateUTC
2013-04-27 00:01:00,51.1,51.1,30.13,NNE,30,0.0,2.2,100,0.04,,,0.00,VWS V13.01,2013-04-27 05:01:00,
2013-04-27 00:06:00,51.1,51.1,30.13,North,4,0.0,0.0,100,0.04,,,0.00,VWS V13.01,2013-04-27 05:06:00,
2013-04-27 00:11:00,51.1,51.1,30.13,North,5,2.2,2.7,100,0.04,,,0.00,VWS V13.01,2013-04-27 05:11:00,
2013-04-27 00:16:00,51.1,51.1,30.13,North,359,2.7,3.6,100,0.04,,,0.00,VWS V13.01,2013-04-27 05:16:00,
2013-04-27 00:21:00,51.1,51.1,30.13,NE,39,4.0,5.4,100,0.04,,,0.00,VWS V13.01,2013-04-27 05:21:00,
2013-04-27 00:26:00,51.1,51.1,30.13,NE,49,3.1,3.1,100,0.04,,,0.00,VWS V13.01,2013-04-27 05:26:00,
2013-04-27 00:31:00,51.2,51.2,30.10,North,353,0.0,2.7,100,0.04,,,0.00,VWS V13.01,2013-04-27 05:31:00,
2013-04-27 00:36:00,51.1,51.1,30.10,NNE,30,3.6,3.6,100,0.04,,,0.00,VWS V13.01,2013-04-27 05:36:00,
2013-04-27 00:41:00,51.2,51.2,30.10,NNE,31,3.1,4.0,100,0.00,,,0.00,VWS V13.01,2013-04-27 05:41:00,
2013-04-27 00:46:00,51.2,51.2,30.10,NE,39,0.0,3.6,100,0.00,,,0.00,VWS V13.01,2013-04-27 05:46:00,
2013-04-27 00:51:00,51.2,51.2,30.10,NE,37,2.7,2.7,100,0.00,,,0.00,VWS V13.01,2013-04-27 05:51:00,
2013-04-27 00:56:00,51.2,51.2,30.10,NE,39,0.0,3.1,100,0.00,,,0.00,VWS V13.01,2013-04-27 05:56:00,
2013-04-27 01:01:00,51.2,51.2,30.10,NE,39,0.0,0.0,100,0.00,,,0.00,VWS V13.01,2013-04-27 06:01:00,
2013-04-27 01:05:00,51.2,51.2,30.10,NE,48,0.0,0.0,100,0.00,,,0.00,VWS V13.01,2013-04-27 06:05:00,
2013-04-27 01:10:00,51.2,51.2,30.10,ENE,73,3.6,3.6,100,0.00,,,0.00,VWS V13.01,2013-04-27 06:10:00,
2013-04-27 01:15:00,51.2,51.2,30.10,NE,48,0.0,0.0,100,0.00,,,0.00,VWS V13.01,2013-04-27 06:15:00,
2013-04-27 01:20:00,51.2,51.2,30.10,NE,48,0.0,2.2,100,0.00,,,0.00,VWS V13.01,2013-04-27 06:20:00,
2013-04-27 01:25:00,51.1,51.1,30.10,NE,44,2.7,4.0,100,0.00,,,0.00,VWS V13.01,2013-04-27 06:25:00,
2013-04-27 01:30:00,51.2,51.2,30.10,NNE,17,3.1,3.1,100,0.00,,,0.00,VWS V13.01,2013-04-27 06:30:00,
2013-04-27 01:35:00,51.2,51.2,30.10,NNE,20,4.0,4.9,100,0.00,,,0.00,VWS V13.01,2013-04-27 06:35:00,
2013-04-27 01:40:00,51.2,51.0,30.10,ENE,62,3.6,5.4,99,0.00,,,0.00,VWS V13.01,2013-04-27 06:40:00,
2013-04-27 01:45:00,51.2,50.7,30.07,NE,49,3.6,3.6,98,0.00,,,0.00,VWS V13.01,2013-04-27 06:45:00,
2013-04-27 01:50:00,51.2,50.7,30.07,ENE,66,3.1,4.0,98,0.00,,,0.00,VWS V13.01,2013-04-27 06:50:00,
2013-04-27 01:55:00,51.2,50.7,30.07,NE,50,3.6,4.9,98,0.00,,,0.00,VWS V13.01,2013-04-27 06:55:00,
2013-04-27 02:00:00,51.2,50.4,30.04,East,80,4.9,4.9,97,0.00,,,0.00,VWS V13.01,2013-04-27 07:00:00,
2013-04-27 02:05:00,51.2,50.1,30.04,East,82,3.1,3.1,96,0.00,,,0.00,VWS V13.01,2013-04-27 07:05:00,
2013-04-27 02:10:00,51.4,50.0,30.04,ENE,72,4.0,4.0,95,0.00,,,0.00,VWS V13.01,2013-04-27 07:10:00,
2013-04-27 02:15:00,51.4,49.8,30.07,NE,45,2.7,2.7,94,0.00,,,0.00,VWS V13.01,2013-04-27 07:15:00,
2013-04-27 02:20:00,51.4,49.5,30.07,NE,45,2.7,3.6,93,0.00,,,0.00,VWS V13.01,2013-04-27 07:20:00,
2013-04-27 02:25:00,51.6,49.7,30.07,NNE,19,2.7,3.6,93,0.00,,,0.00,VWS V13.01,2013-04-27 07:25:00,
2013-04-27 02:30:00,51.4,49.2,30.07,NE,51,3.1,5.4,92,0.00,,,0.00,VWS V13.01,2013-04-27 07:30:00,
2013-04-27 02:35:00,51.4,49.5,30.07,North,7,2.7,2.7,93,0.00,,,0.00,VWS V13.01,2013-04-27 07:35:00,
2013-04-27 02:40:00,51.4,49.2,30.07,NE,44,2.7,2.7,92,0.00,,,0.00,VWS V13.01,2013-04-27 07:40:00,
2013-04-27 02:45:00,51.6,49.7,30.07,NE,55,3.1,4.0,93,0.04,,,0.04,VWS V13.01,2013-04-27 07:45:00,
2013-04-27 02:50:00,51.2,49.6,30.07,ENE,59,0.0,0.0,94,0.04,,,0.04,VWS V13.01,2013-04-27 07:50:00,
2013-04-27 02:55:00,51.2,49.9,30.07,ENE,63,4.9,4.9,95,0.04,,,0.04,VWS V13.01,2013-04-27 07:55:00,
2013-04-27 03:00:00,51.1,49.7,30.04,ENE,75,5.8,5.8,95,0.04,,,0.04,VWS V13.01,2013-04-27 08:00:00,
2013-04-27 03:05:00,51.1,50.0,30.04,ENE,63,2.7,4.9,96,0.04,,,0.04,VWS V13.01,2013-04-27 08:05:00,
2013-04-27 03:10:00,51.1,50.0,30.04,ENE,65,3.6,3.6,96,0.04,,,0.04,VWS V13.01,2013-04-27 08:10:00,
2013-04-27 03:15:00,51.1,50.2,30.04,NE,40,2.7,3.1,97,0.04,,,0.04,VWS V13.01,2013-04-27 08:15:00,
2013-04-27 03:20:00,51.1,50.2,30.04,ESE,115,2.7,4.9,97,0.04,,,0.04,VWS V13.01,2013-04-27 08:20:00,
2013-04-27 03:25:00,51.1,50.2,30.04,NNE,33,2.7,2.7,97,0.04,,,0.04,VWS V13.01,2013-04-27 08:25:00,
2013-04-27 03:30:00,51.1,50.2,30.04,WNW,299,0.0,0.0,97,0.04,,,0.04,VWS V13.01,2013-04-27 08:30:00,
2013-04-27 03:35:00,51.1,50.2,30.04,West,261,3.6,3.6,97,0.04,,,0.04,VWS V13.01,2013-04-27 08:35:00,
2013-04-27 03:40:00,51.1,51.1,30.04,West,259,11.0,12.8,100,0.04,,,0.04,VWS V13.01,2013-04-27 08:40:00,
2013-04-27 03:45:00,51.2,51.2,30.10,WSW,256,7.6,12.3,100,0.08,,,0.08,VWS V13.01,2013-04-27 08:45:00,
2013-04-27 03:50:00,51.4,51.4,30.10,West,265,3.1,4.0,100,0.08,,,0.12,VWS V13.01,2013-04-27 08:50:00,
2013-04-27 03:55:00,51.4,51.4,30.10,ENE,60,4.0,4.9,100,0.08,,,0.12,VWS V13.01,2013-04-27 08:55:00,
2013-04-27 04:00:00,51.4,51.4,30.10,ENE,74,2.7,2.7,100,0.12,,,0.16,VWS V13.01,2013-04-27 09:00:00,
2013-04-27 04:05:00,51.4,51.4,30.10,ENE,62,0.0,2.7,100,0.12,,,0.16,VWS V13.01,2013-04-27 09:05:00,
2013-04-27 04:10:00,51.2,51.2,30.10,ENE,69,4.0,4.0,100,0.12,,,0.20,VWS V13.01,2013-04-27 09:10:00,
2013-04-27 04:15:00,51.2,51.2,30.04,NE,43,4.0,4.0,100,0.16,,,0.20,VWS V13.01,2013-04-27 09:15:00,
2013-04-27 04:20:00,51.2,51.2,30.04,NE,47,11.9,11.9,100,0.16,,,0.20,VWS V13.01,2013-04-27 09:20:00,
2013-04-27 04:25:00,51.1,51.1,30.04,SE,135,8.1,8.1,100,0.20,,,0.24,VWS V13.01,2013-04-27 09:25:00,
2013-04-27 04:30:00,51.2,51.2,29.95,ENE,62,15.0,15.0,100,0.24,,,0.28,VWS V13.01,2013-04-27 09:30:00,
2013-04-27 04:35:00,51.4,51.4,29.95,East,89,9.2,15.0,100,0.24,,,0.28,VWS V13.01,2013-04-27 09:35:00,
2013-04-27 04:40:00,51.4,51.4,29.95,SE,134,12.3,12.3,100,0.24,,,0.28,VWS V13.01,2013-04-27 09:40:00,
2013-04-27 04:45:00,51.4,51.4,29.92,ESE,109,10.5,10.5,100,0.24,,,0.28,VWS V13.01,2013-04-27 09:45:00,
2013-04-27 04:50:00,51.6,51.6,29.92,WSW,252,2.7,5.8,100,0.20,,,0.28,VWS V13.01,2013-04-27 09:50:00,
2013-04-27 04:55:00,51.6,51.6,29.92,North,3,2.2,4.0,100,0.16,,,0.28,VWS V13.01,2013-04-27 09:55:00,
2013-04-27 05:00:00,51.6,51.6,29.98,ENE,76,4.5,4.9,100,0.12,,,0.28,VWS V13.01,2013-04-27 10:00:00,
2013-04-27 05:05:00,51.4,51.4,29.98,NNE,27,4.0,4.0,100,0.12,,,0.28,VWS V13.01,2013-04-27 10:05:00,
2013-04-27 05:10:00,51.6,50.8,29.98,NNE,26,4.0,4.9,97,0.12,,,0.28,VWS V13.01,2013-04-27 10:10:00,
2013-04-27 05:15:00,51.8,50.4,29.95,ENE,59,2.2,3.6,95,0.08,,,0.28,VWS V13.01,2013-04-27 10:15:00,
2013-04-27 05:20:00,51.6,50.5,29.95,NW,307,0.0,0.0,96,0.08,,,0.28,VWS V13.01,2013-04-27 10:20:00,
2013-04-27 05:25:00,51.6,50.8,29.95,NW,307,0.0,0.0,97,0.04,,,0.28,VWS V13.01,2013-04-27 10:25:00,
2013-04-27 05:30:00,51.4,50.6,29.98,West,260,0.0,0.0,97,0.00,,,0.28,VWS V13.01,2013-04-27 10:30:00,
2013-04-27 05:35:00,51.2,50.4,29.98,West,260,0.0,0.0,97,0.00,,,0.28,VWS V13.01,2013-04-27 10:35:00,
2013-04-27 05:40:00,51.2,50.4,29.98,West,260,0.0,0.0,97,0.00,,,0.28,VWS V13.01,2013-04-27 10:40:00,
2013-04-27 05:45:00,51.2,50.7,29.98,West,260,0.0,0.0,98,0.00,,,0.28,VWS V13.01,2013-04-27 10:45:00,
2013-04-27 05:50:00,51.1,50.5,29.98,West,260,0.0,0.0,98,0.00,,,0.28,VWS V13.01,2013-04-27 10:50:00,
2013-04-27 05:55:00,51.1,50.5,29.98,West,260,0.0,0.0,98,0.00,,,0.28,VWS V13.01,2013-04-27 10:55:00,
2013-04-27 06:00:00,51.1,50.5,29.98,West,260,0.0,0.0,98,0.00,,,0.28,VWS V13.01,2013-04-27 11:00:00,
2013-04-27 06:05:00,51.1,50.8,29.98,West,260,0.0,0.0,99,0.00,,,0.28,VWS V13.01,2013-04-27 11:05:00,
2013-04-27 06:10:00,51.1,50.8,29.98,West,260,0.0,0.0,99,0.00,,,0.28,VWS V13.01,2013-04-27 11:10:00,
2013-04-27 06:15:00,51.4,51.4,30.01,NE,44,3.6,3.6,100,0.00,,,0.28,VWS V13.01,2013-04-27 11:15:00,
2013-04-27 06:20:00,51.2,51.2,30.01,East,96,4.0,5.8,100,0.00,,,0.28,VWS V13.01,2013-04-27 11:20:00,
2013-04-27 06:25:00,51.2,51.2,30.01,SW,228,0.0,0.0,100,0.00,,,0.28,VWS V13.01,2013-04-27 11:25:00,
2013-04-27 06:30:00,51.2,51.2,30.01,East,86,0.0,0.0,100,0.04,,,0.31,VWS V13.01,2013-04-27 11:30:00,
2013-04-27 06:35:00,51.2,51.2,30.01,SW,235,3.6,3.6,100,0.04,,,0.31,VWS V13.01,2013-04-27 11:35:00,
2013-04-27 06:40:00,51.4,51.4,30.01,SW,236,0.0,0.0,100,0.04,,,0.31,VWS V13.01,2013-04-27 11:40:00,
2013-04-27 06:45:00,51.4,51.4,30.01,NNE,31,2.7,2.7,100,0.04,,,0.31,VWS V13.01,2013-04-27 11:45:00,
2013-04-27 06:50:00,51.4,51.4,30.01,ENE,67,2.2,3.6,100,0.08,,,0.35,VWS V13.01,2013-04-27 11:50:00,
2013-04-27 06:55:00,51.4,51.4,30.01,NE,55,5.4,5.4,100,0.08,,,0.35,VWS V13.01,2013-04-27 11:55:00,
2013-04-27 07:00:00,51.4,51.4,29.98,ENE,68,2.2,4.9,100,0.08,,,0.35,VWS V13.01,2013-04-27 12:00:00,
2013-04-27 07:05:00,51.4,51.4,29.98,North,356,0.0,0.0,100,0.08,,,0.35,VWS V13.01,2013-04-27 12:05:00,
2013-04-27 07:10:00,51.4,51.4,29.98,ENE,58,4.5,5.8,100,0.08,,,0.35,VWS V13.01,2013-04-27 12:10:00,
2013-04-27 07:15:00,51.4,51.4,29.98,NE,42,0.0,2.7,100,0.08,,,0.35,VWS V13.01,2013-04-27 12:15:00,
2013-04-27 07:19:00,51.6,51.6,29.98,WNW,283,2.2,3.6,100,0.08,,,0.35,VWS V13.01,2013-04-27 12:19:00,
2013-04-27 07:24:00,51.6,51.6,29.98,NNE,33,3.1,3.6,100,0.08,,,0.35,VWS V13.01,2013-04-27 12:24:00,
2013-04-27 07:29:00,51.6,51.6,30.01,NW,323,2.2,3.1,100,0.08,,,0.35,VWS V13.01,2013-04-27 12:29:00,
2013-04-27 07:34:00,51.8,51.8,30.01,WNW,299,0.0,0.0,100,0.04,,,0.35,VWS V13.01,2013-04-27 12:34:00,
2013-04-27 07:39:00,51.8,51.8,30.01,WNW,299,0.0,0.0,100,0.04,,,0.35,VWS V13.01,2013-04-27 12:39:00,
2013-04-27 07:44:00,51.8,51.8,30.01,NE,44,4.0,4.0,100,0.04,,,0.35,VWS V13.01,2013-04-27 12:44:00,
2013-04-27 07:49:00,51.8,51.8,30.01,ENE,58,2.2,2.7,100,0.00,,,0.35,VWS V13.01,2013-04-27 12:49:00,
2013-04-27 07:54:00,52.0,52.0,30.01,NNE,18,3.6,4.0,100,0.00,,,0.35,VWS V13.01,2013-04-27 12:54:00,
2013-04-27 07:59:00,52.0,52.0,30.01,NW,308,0.0,2.7,100,0.00,,,0.35,VWS V13.01,2013-04-27 12:59:00,
2013-04-27 08:04:00,52.0,52.0,30.01,ENE,58,3.6,3.6,100,0.00,,,0.35,VWS V13.01,2013-04-27 13:04:00,
2013-04-27 08:09:00,52.1,52.1,30.01,NE,50,0.0,2.7,100,0.00,,,0.35,VWS V13.01,2013-04-27 13:09:00,
2013-04-27 08:14:00,52.1,52.1,29.98,ENE,70,0.0,2.2,100,0.00,,,0.35,VWS V13.01,2013-04-27 13:14:00,
2013-04-27 08:19:00,52.1,52.1,29.98,North,9,3.6,3.6,100,0.00,,,0.35,VWS V13.01,2013-04-27 13:19:00,
2013-04-27 08:24:00,52.1,52.1,29.98,NE,41,6.3,6.3,100,0.00,,,0.35,VWS V13.01,2013-04-27 13:24:00,
2013-04-27 08:29:00,52.1,52.1,29.98,NNE,15,4.0,4.0,100,0.00,,,0.35,VWS V13.01,2013-04-27 13:29:00,
2013-04-27 08:34:00,52.1,52.1,29.98,West,267,3.1,5.4,100,0.00,,,0.35,VWS V13.01,2013-04-27 13:34:00,
2013-04-27 08:39:00,52.1,52.1,29.98,NE,42,6.3,6.3,100,0.00,,,0.35,VWS V13.01,2013-04-27 13:39:00,
2013-04-27 08:44:00,52.1,52.1,30.01,North,4,2.2,2.2,100,0.04,,,0.39,VWS V13.01,2013-04-27 13:44:00,
2013-04-27 08:49:00,52.1,52.1,30.01,East,91,3.6,5.8,100,0.04,,,0.39,VWS V13.01,2013-04-27 13:49:00,
2013-04-27 08:54:00,52.0,52.0,30.01,NE,37,3.1,5.4,100,0.04,,,0.39,VWS V13.01,2013-04-27 13:54:00,
2013-04-27 08:59:00,52.0,52.0,29.98,ENE,58,4.9,5.4,100,0.04,,,0.39,VWS V13.01,2013-04-27 13:59:00,
2013-04-27 09:04:00,52.0,52.0,29.98,NE,51,0.0,2.7,100,0.04,,,0.39,VWS V13.01,2013-04-27 14:04:00,
2013-04-27 09:09:00,52.0,52.0,29.98,NW,322,3.1,5.4,100,0.04,,,0.39,VWS V13.01,2013-04-27 14:09:00,
2013-04-27 09:14:00,52.1,52.1,29.98,ENE,61,2.7,3.1,100,0.04,,,0.39,VWS V13.01,2013-04-27 14:14:00,
2013-04-27 09:19:00,52.1,52.1,29.98,NE,37,0.0,3.6,100,0.04,,,0.39,VWS V13.01,2013-04-27 14:19:00,
2013-04-27 09:24:00,52.1,52.1,29.98,ENE,72,3.1,4.0,100,0.04,,,0.39,VWS V13.01,2013-04-27 14:24:00,
2013-04-27 09:29:00,52.3,52.3,29.98,NNE,19,3.1,3.1,100,0.04,,,0.39,VWS V13.01,2013-04-27 14:29:00,
2013-04-27 09:34:00,52.5,52.5,29.98,NW,307,3.6,4.0,100,0.04,,,0.39,VWS V13.01,2013-04-27 14:34:00,
2013-04-27 09:39:00,52.5,52.5,29.98,NNW,347,0.0,0.0,100,0.04,,,0.39,VWS V13.01,2013-04-27 14:39:00,
2013-04-27 09:44:00,52.3,52.3,29.98,NE,49,2.2,2.7,100,0.00,,,0.39,VWS V13.01,2013-04-27 14:44:00,
2013-04-27 09:49:00,52.3,52.3,29.98,NW,314,6.3,6.3,100,0.00,,,0.39,VWS V13.01,2013-04-27 14:49:00,
2013-04-27 09:54:00,52.5,52.5,29.98,NE,53,3.6,3.6,100,0.00,,,0.39,VWS V13.01,2013-04-27 14:54:00,
2013-04-27 09:59:00,52.5,52.5,29.98,ENE,63,2.2,2.7,100,0.00,,,0.39,VWS V13.01,2013-04-27 14:59:00,
2013-04-27 10:04:00,52.5,52.5,29.98,ENE,60,3.6,3.6,100,0.00,,,0.39,VWS V13.01,2013-04-27 15:04:00,
2013-04-27 10:09:00,52.7,52.7,29.98,NNE,14,0.0,0.0,100,0.00,,,0.39,VWS V13.01,2013-04-27 15:09:00,
2013-04-27 10:14:00,52.7,52.7,29.98,NNE,14,0.0,0.0,100,0.00,,,0.39,VWS V13.01,2013-04-27 15:14:00,
2013-04-27 10:19:00,52.7,52.7,29.98,NE,44,4.0,4.0,100,0.00,,,0.39,VWS V13.01,2013-04-27 15:19:00,
2013-04-27 10:24:00,52.7,52.7,29.98,NE,42,3.6,4.0,100,0.00,,,0.39,VWS V13.01,2013-04-27 15:24:00,
2013-04-27 10:29:00,52.7,52.7,29.98,NE,52,0.0,2.2,100,0.00,,,0.39,VWS V13.01,2013-04-27 15:29:00,
2013-04-27 10:34:00,52.9,52.9,29.98,NNE,15,2.2,2.7,100,0.00,,,0.39,VWS V13.01,2013-04-27 15:34:00,
2013-04-27 10:39:00,52.9,52.9,29.98,NNE,27,0.0,0.0,100,0.00,,,0.39,VWS V13.01,2013-04-27 15:39:00,
2013-04-27 10:44:00,53.0,53.0,29.98,NE,56,0.0,0.0,100,0.00,,,0.39,VWS V13.01,2013-04-27 15:44:00,
2013-04-27 10:49:00,53.2,53.2,29.98,ENE,74,0.0,0.0,100,0.00,,,0.39,VWS V13.01,2013-04-27 15:49:00,
2013-04-27 10:54:00,53.2,53.2,29.98,ENE,59,2.2,3.1,100,0.00,,,0.39,VWS V13.01,2013-04-27 15:54:00,
2013-04-27 10:59:00,53.2,53.2,29.98,NE,46,3.1,3.1,100,0.00,,,0.39,VWS V13.01,2013-04-27 15:59:00,
2013-04-27 11:04:00,53.4,53.4,29.98,NNE,28,0.0,0.0,100,0.00,,,0.39,VWS V13.01,2013-04-27 16:04:00,
2013-04-27 11:09:00,53.4,53.4,29.98,North,353,0.0,3.6,100,0.00,,,0.39,VWS V13.01,2013-04-27 16:09:00,
2013-04-27 11:14:00,53.4,53.4,29.98,NE,41,3.1,3.1,100,0.00,,,0.39,VWS V13.01,2013-04-27 16:14:00,
2013-04-27 11:19:00,53.4,53.4,29.98,NE,55,0.0,0.0,100,0.00,,,0.39,VWS V13.01,2013-04-27 16:19:00,
2013-04-27 11:24:00,53.6,53.6,29.98,NE,34,0.0,0.0,100,0.00,,,0.39,VWS V13.01,2013-04-27 16:24:00,
2013-04-27 11:29:00,53.4,53.4,30.01,NW,306,2.2,2.2,100,0.00,,,0.39,VWS V13.01,2013-04-27 16:29:00,
2013-04-27 11:34:00,53.6,53.6,30.01,NE,48,0.0,0.0,100,0.00,,,0.39,VWS V13.01,2013-04-27 16:34:00,
2013-04-27 11:39:00,53.8,53.8,30.01,NE,53,0.0,2.7,100,0.00,,,0.39,VWS V13.01,2013-04-27 16:39:00,
2013-04-27 11:44:00,53.9,53.9,29.98,NNE,12,0.0,3.1,100,0.04,,,0.43,VWS V13.01,2013-04-27 16:44:00,
2013-04-27 11:49:00,53.8,53.8,29.98,NNE,15,4.0,4.0,100,0.04,,,0.43,VWS V13.01,2013-04-27 16:49:00,
2013-04-27 11:54:00,53.8,53.8,29.98,NNE,20,0.0,0.0,100,0.04,,,0.43,VWS V13.01,2013-04-27 16:54:00,
2013-04-27 11:59:00,53.9,53.9,29.98,NE,44,0.0,0.0,100,0.04,,,0.43,VWS V13.01,2013-04-27 16:59:00,
2013-04-27 12:04:00,53.9,53.9,29.98,East,82,0.0,0.0,100,0.04,,,0.43,VWS V13.01,2013-04-27 17:04:00,
2013-04-27 12:09:00,54.1,54.1,29.98,NNW,341,0.0,0.0,100,0.04,,,0.43,VWS V13.01,2013-04-27 17:09:00,
2013-04-27 12:14:00,54.1,54.1,29.98,ENE,61,2.7,2.7,100,0.04,,,0.43,VWS V13.01,2013-04-27 17:14:00,
2013-04-27 12:19:00,54.3,54.3,29.98,NNE,33,0.0,0.0,100,0.04,,,0.43,VWS V13.01,2013-04-27 17:19:00,
2013-04-27 12:24:00,54.5,54.5,29.98,East,87,0.0,0.0,100,0.04,,,0.43,VWS V13.01,2013-04-27 17:24:00,
2013-04-27 12:29:00,54.8,54.8,29.98,NE,38,0.0,0.0,100,0.04,,,0.43,VWS V13.01,2013-04-27 17:29:00,
2013-04-27 12:34:00,54.8,54.8,29.98,NE,38,2.2,2.2,100,0.04,,,0.43,VWS V13.01,2013-04-27 17:34:00,
2013-04-27 12:39:00,54.8,54.8,29.98,East,88,0.0,0.0,100,0.04,,,0.43,VWS V13.01,2013-04-27 17:39:00,
2013-04-27 12:44:00,54.7,54.7,29.98,NE,44,2.2,3.1,100,0.00,,,0.43,VWS V13.01,2013-04-27 17:44:00,
2013-04-27 12:49:00,54.7,54.7,29.98,NNE,25,2.2,3.1,100,0.00,,,0.43,VWS V13.01,2013-04-27 17:49:00,
2013-04-27 12:54:00,54.8,54.8,29.98,NE,47,2.2,3.1,100,0.00,,,0.43,VWS V13.01,2013-04-27 17:54:00,
2013-04-27 12:59:00,54.8,54.8,29.98,ENE,67,0.0,0.0,100,0.00,,,0.43,VWS V13.01,2013-04-27 17:59:00,
2013-04-27 13:04:00,54.8,54.8,29.98,NE,48,0.0,0.0,100,0.00,,,0.43,VWS V13.01,2013-04-27 18:04:00,
2013-04-27 13:09:00,54.8,54.8,29.98,East,79,2.7,3.1,100,0.00,,,0.43,VWS V13.01,2013-04-27 18:09:00,
2013-04-27 13:14:00,55.0,55.0,29.98,ESE,105,0.0,0.0,100,0.00,,,0.43,VWS V13.01,2013-04-27 18:14:00,
2013-04-27 13:19:00,55.2,55.2,29.98,East,89,0.0,0.0,100,0.00,,,0.43,VWS V13.01,2013-04-27 18:19:00,
2013-04-27 13:24:00,55.4,55.4,29.98,South,176,0.0,0.0,100,0.00,,,0.43,VWS V13.01,2013-04-27 18:24:00,
2013-04-27 13:29:00,55.4,55.4,29.98,SSW,197,0.0,0.0,100,0.00,,,0.43,VWS V13.01,2013-04-27 18:29:00,
2013-04-27 13:34:00,55.4,55.4,29.98,SSW,197,0.0,0.0,100,0.00,,,0.43,VWS V13.01,2013-04-27 18:34:00,
2013-04-27 13:39:00,55.6,55.6,29.98,ESE,115,0.0,0.0,100,0.00,,,0.43,VWS V13.01,2013-04-27 18:39:00,
2013-04-27 13:44:00,55.4,55.4,29.98,SSE,147,2.7,3.1,100,0.00,,,0.43,VWS V13.01,2013-04-27 18:44:00,
2013-04-27 13:49:00,55.6,55.6,29.98,SSE,147,0.0,2.7,100,0.00,,,0.43,VWS V13.01,2013-04-27 18:49:00,
2013-04-27 13:54:00,55.6,55.6,29.98,ESE,103,0.0,0.0,100,0.00,,,0.43,VWS V13.01,2013-04-27 18:54:00,
2013-04-27 13:59:00,55.6,55.6,29.98,South,170,0.0,0.0,100,0.00,,,0.43,VWS V13.01,2013-04-27 18:59:00,
2013-04-27 14:03:00,55.6,55.6,29.98,WSW,240,0.0,0.0,100,0.00,,,0.43,VWS V13.01,2013-04-27 19:03:00,
2013-04-27 14:08:00,55.6,55.6,29.98,SW,214,3.1,3.1,100,0.00,,,0.43,VWS V13.01,2013-04-27 19:08:00,
2013-04-27 14:13:00,55.6,55.6,29.98,SW,234,5.4,5.4,100,0.00,,,0.43,VWS V13.01,2013-04-27 19:13:00,
2013-04-27 14:18:00,55.6,55.6,29.98,South,187,2.7,4.0,100,0.00,,,0.43,VWS V13.01,2013-04-27 19:18:00,
2013-04-27 14:23:00,55.6,55.6,29.98,South,190,4.0,4.0,100,0.00,,,0.43,VWS V13.01,2013-04-27 19:23:00,
2013-04-27 14:28:00,55.6,55.6,29.98,SW,216,3.1,3.1,100,0.00,,,0.43,VWS V13.01,2013-04-27 19:28:00,
2013-04-27 14:33:00,55.6,55.6,29.98,SW,229,5.8,5.8,100,0.00,,,0.43,VWS V13.01,2013-04-27 19:33:00,
2013-04-27 14:38:00,55.7,55.7,29.98,SW,227,4.0,4.0,100,0.00,,,0.43,VWS V13.01,2013-04-27 19:38:00,
2013-04-27 14:43:00,55.7,55.7,29.98,SW,225,2.7,3.1,100,0.00,,,0.43,VWS V13.01,2013-04-27 19:43:00,
2013-04-27 14:48:00,55.9,55.9,29.98,WSW,238,2.7,2.7,100,0.00,,,0.43,VWS V13.01,2013-04-27 19:48:00,
2013-04-27 14:53:00,55.9,55.9,29.98,SW,228,4.0,6.3,100,0.00,,,0.43,VWS V13.01,2013-04-27 19:53:00,
2013-04-27 14:58:00,55.9,55.9,29.98,SSW,211,4.0,8.3,100,0.00,,,0.43,VWS V13.01,2013-04-27 19:58:00,
2013-04-27 15:03:00,55.7,55.7,29.98,SW,223,4.9,4.9,100,0.00,,,0.43,VWS V13.01,2013-04-27 20:03:00,
2013-04-27 15:08:00,55.7,55.7,29.98,SSW,197,4.0,5.8,100,0.00,,,0.43,VWS V13.01,2013-04-27 20:08:00,
2013-04-27 15:13:00,55.7,55.7,29.98,WSW,240,5.4,5.8,100,0.00,,,0.43,VWS V13.01,2013-04-27 20:13:00,
2013-04-27 15:18:00,55.7,55.7,29.98,WSW,251,6.3,6.3,100,0.00,,,0.43,VWS V13.01,2013-04-27 20:18:00,
2013-04-27 15:23:00,55.7,55.7,29.98,SW,234,3.1,6.3,100,0.00,,,0.43,VWS V13.01,2013-04-27 20:23:00,
2013-04-27 15:28:00,55.7,55.7,29.98,WSW,237,5.4,6.3,100,0.00,,,0.43,VWS V13.01,2013-04-27 20:28:00,
2013-04-27 15:33:00,55.7,55.7,29.98,SW,226,4.0,6.3,100,0.00,,,0.43,VWS V13.01,2013-04-27 20:33:00,
2013-04-27 15:38:00,55.9,55.9,29.98,SSW,205,4.9,5.4,100,0.00,,,0.43,VWS V13.01,2013-04-27 20:38:00,
2013-04-27 15:43:00,55.9,55.9,29.98,SW,225,6.3,7.6,100,0.00,,,0.43,VWS V13.01,2013-04-27 20:43:00,
2013-04-27 15:48:00,55.9,55.9,29.98,SW,224,3.6,3.6,100,0.00,,,0.43,VWS V13.01,2013-04-27 20:48:00,
2013-04-27 15:53:00,56.1,56.1,29.98,WSW,250,5.8,5.8,100,0.00,,,0.43,VWS V13.01,2013-04-27 20:53:00,
2013-04-27 15:58:00,56.1,56.1,29.98,WSW,241,5.8,5.8,100,0.00,,,0.43,VWS V13.01,2013-04-27 20:58:00,
2013-04-27 16:03:00,56.1,56.1,29.98,SW,235,4.9,4.9,100,0.00,,,0.43,VWS V13.01,2013-04-27 21:03:00,
2013-04-27 16:08:00,56.1,56.1,29.98,SW,223,5.8,5.8,100,0.00,,,0.43,VWS V13.01,2013-04-27 21:08:00,
2013-04-27 16:13:00,56.3,56.3,29.98,WSW,241,5.4,5.4,100,0.00,,,0.43,VWS V13.01,2013-04-27 21:13:00,
2013-04-27 16:18:00,56.5,56.5,29.98,WSW,247,3.6,4.0,100,0.00,,,0.43,VWS V13.01,2013-04-27 21:18:00,
2013-04-27 16:23:00,56.6,56.6,29.98,WSW,242,5.4,5.4,100,0.00,,,0.43,VWS V13.01,2013-04-27 21:23:00,
2013-04-27 16:28:00,56.8,56.8,29.98,West,281,4.0,5.4,100,0.00,,,0.43,VWS V13.01,2013-04-27 21:28:00,
2013-04-27 16:33:00,56.8,56.8,29.95,WSW,248,5.4,10.5,100,0.00,,,0.43,VWS V13.01,2013-04-27 21:33:00,
2013-04-27 16:38:00,56.8,56.8,29.95,WSW,241,4.9,5.4,100,0.00,,,0.43,VWS V13.01,2013-04-27 21:38:00,
2013-04-27 16:43:00,57.0,57.0,29.95,West,265,5.4,6.3,100,0.00,,,0.43,VWS V13.01,2013-04-27 21:43:00,
2013-04-27 16:48:00,57.0,57.0,29.95,West,264,4.0,5.8,100,0.00,,,0.43,VWS V13.01,2013-04-27 21:48:00,
2013-04-27 16:53:00,57.2,56.9,29.95,SW,234,7.6,7.6,99,0.00,,,0.43,VWS V13.01,2013-04-27 21:53:00,
2013-04-27 16:58:00,57.2,56.6,29.95,WSW,240,5.4,5.8,98,0.00,,,0.43,VWS V13.01,2013-04-27 21:58:00,
2013-04-27 17:03:00,57.4,56.8,29.95,SW,236,5.8,5.8,98,0.00,,,0.43,VWS V13.01,2013-04-27 22:03:00,
2013-04-27 17:08:00,57.4,56.5,29.95,SSW,213,5.4,8.3,97,0.00,,,0.43,VWS V13.01,2013-04-27 22:08:00,
2013-04-27 17:13:00,57.5,56.7,29.95,West,264,5.8,5.8,97,0.00,,,0.43,VWS V13.01,2013-04-27 22:13:00,
2013-04-27 17:18:00,57.7,56.9,29.95,WSW,238,5.4,5.8,97,0.00,,,0.43,VWS V13.01,2013-04-27 22:18:00,
2013-04-27 17:23:00,57.9,56.8,29.95,WSW,238,3.6,3.6,96,0.00,,,0.43,VWS V13.01,2013-04-27 22:23:00,
2013-04-27 17:28:00,58.1,56.7,29.95,West,259,3.6,5.4,95,0.00,,,0.43,VWS V13.01,2013-04-27 22:28:00,
2013-04-27 17:33:00,58.3,56.5,29.95,SW,234,7.6,7.6,94,0.00,,,0.43,VWS V13.01,2013-04-27 22:33:00,
2013-04-27 17:38:00,58.4,56.4,29.95,West,266,8.7,8.7,93,0.00,,,0.43,VWS V13.01,2013-04-27 22:38:00,
2013-04-27 17:43:00,58.4,55.8,29.95,WSW,245,8.1,8.1,91,0.00,,,0.43,VWS V13.01,2013-04-27 22:43:00,
2013-04-27 17:48:00,58.6,55.7,29.95,SW,216,7.6,8.7,90,0.00,,,0.43,VWS V13.01,2013-04-27 22:48:00,
2013-04-27 17:53:00,58.6,55.4,29.95,WSW,238,6.3,8.7,89,0.00,,,0.43,VWS V13.01,2013-04-27 22:53:00,
2013-04-27 17:58:00,58.6,55.1,29.95,SW,234,6.3,8.3,88,0.00,,,0.43,VWS V13.01,2013-04-27 22:58:00,
2013-04-27 18:03:00,58.6,55.1,29.95,SW,229,6.3,7.6,88,0.00,,,0.43,VWS V13.01,2013-04-27 23:03:00,
2013-04-27 18:08:00,58.6,55.4,29.95,SW,214,3.6,4.9,89,0.00,,,0.43,VWS V13.01,2013-04-27 23:08:00,
2013-04-27 18:13:00,58.4,54.9,29.95,WSW,241,9.6,9.6,88,0.00,,,0.43,VWS V13.01,2013-04-27 23:13:00,
2013-04-27 18:18:00,58.3,55.0,29.95,SW,229,5.8,5.8,89,0.00,,,0.43,VWS V13.01,2013-04-27 23:18:00,
2013-04-27 18:23:00,58.1,55.2,29.95,SW,224,3.6,4.0,90,0.00,,,0.43,VWS V13.01,2013-04-27 23:23:00,
2013-04-27 18:28:00,57.9,55.3,29.95,SW,218,6.3,6.7,91,0.00,,,0.43,VWS V13.01,2013-04-27 23:28:00,
2013-04-27 18:33:00,57.7,55.1,29.95,SW,214,8.3,10.5,91,0.00,,,0.43,VWS V13.01,2013-04-27 23:33:00,
2013-04-27 18:38:00,57.5,54.6,29.95,SW,231,6.3,6.3,90,0.00,,,0.43,VWS V13.01,2013-04-27 23:38:00,
2013-04-27 18:43:00,57.5,54.6,29.95,SW,222,6.3,7.6,90,0.00,,,0.43,VWS V13.01,2013-04-27 23:43:00,
2013-04-27 18:48:00,57.5,54.3,29.95,SW,221,4.0,7.6,89,0.00,,,0.43,VWS V13.01,2013-04-27 23:48:00,
2013-04-27 18:53:00,57.5,54.3,29.95,SW,232,6.3,6.3,89,0.00,,,0.43,VWS V13.01,2013-04-27 23:53:00,
2013-04-27 18:58:00,57.5,54.0,29.95,SSW,209,7.6,9.2,88,0.00,,,0.43,VWS V13.01,2013-04-27 23:58:00,
2013-04-27 19:03:00,57.4,53.8,29.95,SSW,200,4.0,5.8,88,0.00,,,0.43,VWS V13.01,2013-04-28 00:03:00,
2013-04-27 19:08:00,57.4,53.8,29.95,SW,235,4.0,4.0,88,0.00,,,0.43,VWS V13.01,2013-04-28 00:08:00,
2013-04-27 19:13:00,57.4,53.8,29.95,SW,232,5.8,8.1,88,0.00,,,0.43,VWS V13.01,2013-04-28 00:13:00,
2013-04-27 19:18:00,57.2,53.7,29.95,SW,232,6.3,7.6,88,0.00,,,0.43,VWS V13.01,2013-04-28 00:18:00,
2013-04-27 19:23:00,57.0,53.5,29.95,SW,221,5.4,5.4,88,0.00,,,0.43,VWS V13.01,2013-04-28 00:23:00,
2013-04-27 19:28:00,56.8,53.6,29.95,SW,223,5.4,5.4,89,0.00,,,0.43,VWS V13.01,2013-04-28 00:28:00,
2013-04-27 19:33:00,56.8,53.9,29.95,SW,219,4.9,6.7,90,0.00,,,0.43,VWS V13.01,2013-04-28 00:33:00,
2013-04-27 19:38:00,56.8,53.6,29.95,SW,234,5.8,6.3,89,0.00,,,0.43,VWS V13.01,2013-04-28 00:38:00,
2013-04-27 19:43:00,56.6,53.4,29.95,WSW,245,6.3,8.1,89,0.00,,,0.43,VWS V13.01,2013-04-28 00:43:00,
2013-04-27 19:48:00,56.6,53.4,29.95,WSW,254,8.1,10.5,89,0.00,,,0.43,VWS V13.01,2013-04-28 00:48:00,
2013-04-27 19:53:00,56.5,53.3,29.95,SW,228,6.3,8.7,89,0.00,,,0.43,VWS V13.01,2013-04-28 00:53:00,
2013-04-27 19:58:00,56.5,53.3,29.95,SSW,212,3.6,8.3,89,0.00,,,0.43,VWS V13.01,2013-04-28 00:58:00,
2013-04-27 20:03:00,56.3,53.1,29.95,SSW,213,6.3,6.7,89,0.00,,,0.43,VWS V13.01,2013-04-28 01:03:00,
2013-04-27 20:08:00,56.1,53.2,29.95,SW,229,5.4,8.3,90,0.00,,,0.43,VWS V13.01,2013-04-28 01:08:00,
2013-04-27 20:12:00,56.1,53.2,29.95,SW,228,8.1,8.1,90,0.00,,,0.43,VWS V13.01,2013-04-28 01:12:00,
2013-04-27 20:17:00,55.9,52.7,29.95,SW,233,8.7,8.7,89,0.00,,,0.43,VWS V13.01,2013-04-28 01:17:00,
2013-04-27 20:22:00,55.9,52.7,29.95,SSW,200,10.1,10.1,89,0.00,,,0.43,VWS V13.01,2013-04-28 01:22:00,
2013-04-27 20:27:00,55.7,52.2,29.95,WSW,251,8.7,8.7,88,0.00,,,0.43,VWS V13.01,2013-04-28 01:27:00,
2013-04-27 20:32:00,55.7,52.2,29.95,WSW,245,4.9,6.3,88,0.00,,,0.43,VWS V13.01,2013-04-28 01:32:00,
2013-04-27 20:37:00,55.7,52.2,29.95,WSW,237,8.3,8.3,88,0.00,,,0.43,VWS V13.01,2013-04-28 01:37:00,
2013-04-27 20:42:00,55.6,52.1,29.95,West,267,10.1,10.1,88,0.00,,,0.43,VWS V13.01,2013-04-28 01:42:00,
2013-04-27 20:47:00,55.4,51.9,29.95,West,269,5.4,8.7,88,0.00,,,0.43,VWS V13.01,2013-04-28 01:47:00,
2013-04-27 20:52:00,55.2,51.4,29.95,SW,214,8.3,10.1,87,0.00,,,0.43,VWS V13.01,2013-04-28 01:52:00,
2013-04-27 20:57:00,55.2,51.4,29.95,WSW,250,4.9,6.3,87,0.00,,,0.43,VWS V13.01,2013-04-28 01:57:00,
2013-04-27 21:02:00,55.0,51.2,29.95,SW,228,7.6,8.3,87,0.00,,,0.43,VWS V13.01,2013-04-28 02:02:00,
2013-04-27 21:07:00,54.8,51.0,29.95,WSW,249,3.6,5.8,87,0.00,,,0.43,VWS V13.01,2013-04-28 02:07:00,
2013-04-27 21:12:00,54.7,50.9,29.95,WSW,253,8.3,9.2,87,0.00,,,0.43,VWS V13.01,2013-04-28 02:12:00,
2013-04-27 21:17:00,54.7,51.2,29.95,West,263,4.0,4.0,88,0.00,,,0.43,VWS V13.01,2013-04-28 02:17:00,
2013-04-27 21:22:00,54.5,51.3,29.95,SW,218,3.6,3.6,89,0.00,,,0.43,VWS V13.01,2013-04-28 02:22:00,
2013-04-27 21:27:00,54.5,51.3,29.95,West,261,4.9,6.3,89,0.00,,,0.43,VWS V13.01,2013-04-28 02:27:00,
2013-04-27 21:32:00,54.5,51.6,29.95,West,263,4.0,5.8,90,0.00,,,0.43,VWS V13.01,2013-04-28 02:32:00,
2013-04-27 21:37:00,54.5,51.6,29.95,West,265,5.4,5.4,90,0.00,,,0.43,VWS V13.01,2013-04-28 02:37:00,
2013-04-27 21:42:00,54.5,51.6,29.95,WSW,252,3.6,3.6,90,0.00,,,0.43,VWS V13.01,2013-04-28 02:42:00,
2013-04-27 21:47:00,54.5,51.6,29.98,WSW,253,3.6,5.8,90,0.00,,,0.43,VWS V13.01,2013-04-28 02:47:00,
2013-04-27 21:52:00,54.5,51.3,29.98,SW,227,4.0,4.0,89,0.00,,,0.43,VWS V13.01,2013-04-28 02:52:00,
2013-04-27 21:57:00,54.5,51.3,29.98,SW,233,3.1,4.0,89,0.00,,,0.43,VWS V13.01,2013-04-28 02:57:00,
2013-04-27 22:02:00,54.3,51.1,29.98,West,266,3.1,4.0,89,0.00,,,0.43,VWS V13.01,2013-04-28 03:02:00,
2013-04-27 22:07:00,54.3,51.1,29.98,SW,235,6.7,6.7,89,0.00,,,0.43,VWS V13.01,2013-04-28 03:07:00,
2013-04-27 22:12:00,54.3,51.1,29.98,WSW,246,4.0,5.4,89,0.00,,,0.43,VWS V13.01,2013-04-28 03:12:00,
2013-04-27 22:17:00,54.3,51.1,29.98,WSW,242,4.0,4.0,89,0.00,,,0.43,VWS V13.01,2013-04-28 03:17:00,
2013-04-27 22:22:00,54.3,51.1,29.98,SW,229,2.2,3.1,89,0.00,,,0.43,VWS V13.01,2013-04-28 03:22:00,
2013-04-27 22:27:00,54.1,51.0,29.98,WSW,248,4.9,5.8,89,0.00,,,0.43,VWS V13.01,2013-04-28 03:27:00,
2013-04-27 22:32:00,54.1,51.3,29.98,WSW,239,4.0,4.9,90,0.00,,,0.43,VWS V13.01,2013-04-28 03:32:00,
2013-04-27 22:37:00,54.1,51.0,29.98,WSW,241,2.7,5.8,89,0.00,,,0.43,VWS V13.01,2013-04-28 03:37:00,
2013-04-27 22:42:00,53.9,50.8,29.98,SW,233,4.0,4.0,89,0.00,,,0.43,VWS V13.01,2013-04-28 03:42:00,
2013-04-27 22:47:00,53.9,50.8,29.98,WSW,247,2.7,4.0,89,0.00,,,0.43,VWS V13.01,2013-04-28 03:47:00,
2013-04-27 22:52:00,53.9,50.8,29.98,WSW,245,2.7,3.6,89,0.00,,,0.43,VWS V13.01,2013-04-28 03:52:00,
2013-04-27 22:57:00,53.8,50.6,29.98,WSW,245,4.0,4.9,89,0.00,,,0.43,VWS V13.01,2013-04-28 03:57:00,
2013-04-27 23:01:00,53.8,50.6,29.98,SW,229,3.1,4.0,89,0.00,,,0.43,VWS V13.01,2013-04-28 04:01:00,
2013-04-27 23:06:00,53.8,50.6,29.98,West,262,4.9,4.9,89,0.00,,,0.43,VWS V13.01,2013-04-28 04:06:00,
2013-04-27 23:11:00,53.6,50.4,29.98,SW,235,4.9,6.7,89,0.00,,,0.43,VWS V13.01,2013-04-28 04:11:00,
2013-04-27 23:16:00,53.6,50.4,29.98,WSW,238,5.8,5.8,89,0.00,,,0.43,VWS V13.01,2013-04-28 04:16:00,
2013-04-27 23:21:00,53.6,50.4,29.98,SW,235,4.0,4.0,89,0.00,,,0.43,VWS V13.01,2013-04-28 04:21:00,
2013-04-27 23:26:00,53.6,50.4,29.98,SW,223,3.1,4.0,89,0.00,,,0.43,VWS V13.01,2013-04-28 04:26:00,
2013-04-27 23:31:00,53.4,50.2,29.98,SW,224,0.0,3.6,89,0.00,,,0.43,VWS V13.01,2013-04-28 04:31:00,
2013-04-27 23:36:00,53.4,50.2,29.98,SSW,207,3.1,3.1,89,0.00,,,0.43,VWS V13.01,2013-04-28 04:36:00,
2013-04-27 23:41:00,53.4,50.2,29.98,WSW,238,2.7,2.7,89,0.00,,,0.43,VWS V13.01,2013-04-28 04:41:00,
2013-04-27 23:46:00,53.2,50.4,29.98,SW,216,2.7,2.7,90,0.00,,,0.43,VWS V13.01,2013-04-28 04:46:00,
2013-04-27 23:51:00,53.2,50.4,29.98,SW,233,2.7,2.7,90,0.00,,,0.43,VWS V13.01,2013-04-28 04:51:00,
2013-04-27 23:56:00,53.2,50.4,29.98,SW,225,2.2,2.2,90,0.00,,,0.43,VWS V13.01,2013-04-28 04:56:00,